User: anonymous   Login
Location: Pedholt
(56.0260°N, 10.2097°E)
Time: 23:22:51
(UTC+00:00)
Language:

SL-08 R/B - Orbit

View from above orbital plane
View from above orbital plane
View from above satellite
View from above satellite

Ground track
Ground track

The orbit data is extracted from the following two-line orbital elements,

1 27561U 02054C   20272.48029276 +.00000090 +00000-0 +31326-4 0  9991
2 27561 098.4283 060.2537 0047289 075.6616 284.9825 14.55830179946685
Epoch (UTC): 28 September 2020 11:31:37
Eccentricity: 0.0047289
inclination: 98.4283°
perigee height: 673 km
apogee height: 740 km
right ascension of ascending node: 60.2537°
argument of perigee: 75.6616°
revolutions per day: 14.55830179
mean anomaly at epoch: 284.9825°
orbit number at epoch: 94668

The dashed part of the orbit path shows where the satellite is in the earth's shadow,  

DLR